This demonstration page uses our WeatherBlox Daily Observations layout. Learn more.

39.29038, -76.61219

Hourly Observations for February 24, 2020

Temp ( °F °C ) Dew Point ( °F °C ) Humidity (%) Winds ( mph kmh ) Pressure ( in mb ) Visibility ( mi km ) Precip ( " mm )
12:54 am 00:54 undefined 42 5.6 27 -2.8 55 55 undefined N/A 30.07 1018 N/A 0 0
1:54 am 01:54 undefined 39 3.9 25 -3.9 57 57 undefined N/A 30.07 1018 N/A 0 0
2:54 am 02:54 undefined 38 3.3 26 -3.3 62 62 undefined N/A 30.06 1018 N/A 0 0
3:54 am 03:54 undefined 37 2.8 26 -3.3 65 65 undefined N/A 30.05 1018 N/A 0 0
4:54 am 04:54 undefined 37 2.8 25 -3.9 62 62 undefined N/A 30.06 1018 N/A 0 0
5:54 am 05:54 undefined 36 2.2 25 -3.9 64 64 undefined N/A 30.05 1018 N/A 0 0
6:54 am 06:54 undefined 36 2.2 25 -3.9 64 64 undefined N/A 30.06 1018 N/A 0 0
7:54 am 07:54 undefined 38 3.3 26 -3.3 62 62 undefined N/A 30.06 1018 N/A 0 0
8:54 am 08:54 undefined 44 6.7 31 -0.6 60 60 undefined N/A 30.08 1019 N/A 0 0
9:54 am 09:54 undefined 48 8.9 33 0.6 56 56 undefined N/A 30.07 1018 N/A 0 0
10:54 am 10:54 undefined 50 10 30 -1.1 46 46 undefined N/A 30.06 1018 N/A 0 0
11:54 am 11:54 undefined 53 11.7 28 -2.2 38 38 undefined N/A 30.04 1017 N/A 0 0
12:54 pm 12:54 undefined 54 12.2 29 -1.7 38 38 undefined N/A 30.02 1017 N/A 0 0
1:54 pm 13:54 undefined 58 14.4 24 -4.4 27 27 undefined N/A 29.99 1016 N/A 0 0
2:54 pm 14:54 undefined 55 12.8 30 -1.1 38 38 undefined N/A 29.98 1015 N/A 0 0
3:54 pm 15:54 undefined 55 12.8 32 0 42 42 undefined N/A 29.95 1014 N/A 0 0
4:54 pm 16:54 undefined 52 11.1 33 0.6 49 49 undefined N/A 29.94 1014 N/A 0 0
5:54 pm 17:54 undefined 52 11.1 35 1.7 53 53 undefined N/A 29.95 1014 N/A 0 0
6:54 pm 18:54 undefined 52 11.1 35 1.7 53 53 undefined N/A 29.95 1014 N/A 0 0
7:54 pm 19:54 undefined 50 10 37 2.8 61 61 undefined N/A 29.95 1014 N/A 0 0
8:54 pm 20:54 undefined 49 9.4 36 2.2 61 61 undefined N/A 29.95 1014 N/A 0 0
9:54 pm 21:54 undefined 49 9.4 37 2.8 64 64 undefined N/A 29.95 1014 N/A 0 0
10:54 pm 22:54 undefined 48 8.9 38 3.3 68 68 undefined N/A 29.93 1014 N/A 0 0
11:54 pm 23:54 undefined 49 9.4 38 3.3 66 66 undefined N/A 29.92 1013 N/A 0 0

Powered by AerisWeather